Regional Weather Roundup
Issued by NWS

Home | Current Version | Previous Version | Graphics & Text | Print | Product List | Glossary Off
Versions: 1 2 3 4 5 6 7 8 9 10 11 12 13 14 15 16 17 18 19 20 21 22 23 24 25 26 27 28 29 30 31 32 33 34 35 36 37 38 39 40 41 42 43 44 45 46 47 48 49 50

000
ASUS43 KLMK 260610
RWRKY
KENTUCKY REGIONAL WEATHER ROUNDUP
NATIONAL WEATHER SERVICE LOUISVILLE KY
200 AM EDT MON JUN 26 2017

NOTE "FAIR" INDICATES FEW OR NO CLOUDS BELOW 12,000 FEET
WITH NO SIGNIFICANT WEATHER AND/OR OBSTRUCTIONS TO VISIBILITY.

KYZ001>023-026-027-061>063-070>075-260700-
WESTERN AND SOUTH CENTRAL KENTUCKY

CITY           SKY/WX    TMP DP  RH WIND       PRES   REMARKS
PADUCAH        CLOUDY    69  55  60 N5        30.17S
HENDERSON      CLEAR     65  51  60 NW3       30.18F
OWENSBORO      CLEAR     66  51  58 N5        30.18S
HOPKINSVILLE   CLEAR     64  57  77 SW6       30.16S
BOWLING GREEN  CLEAR     63  59  87 CALM      30.16F
GLASGOW        CLEAR     58  58 100 CALM      30.16F
$$

KYZ024-025-028>034-038-045-046-053-260700-
NORTH CENTRAL KENTUCKY

CITY           SKY/WX    TMP DP  RH WIND       PRES   REMARKS
LOUISVILLE/SDF PTCLDY    64  51  62 NW6       30.15F
LOUISVILLE/LOU CLEAR     64  53  67 NW3       30.16S
FORT KNOX      PTCLDY    60  49  66 NW6       30.15S
$$

KYZ035>037-039>044-047>052-055>060-089>105-260700-
NORTHEAST KENTUCKY

CITY           SKY/WX    TMP DP  RH WIND       PRES   REMARKS
LEXINGTON      CLEAR     60  48  64 CALM      30.15F
COVINGTON      PTCLDY    61  51  70 SW6       30.14R
FRANKFORT      CLEAR     57  51  80 N3        30.13F
$$

KYZ054-064>069-076>088-106>120-260700-
SOUTHEAST KENTUCKY

CITY           SKY/WX    TMP DP  RH WIND       PRES   REMARKS
JACKSON        PTCLDY    63  50  62 CALM      30.17S
LONDON         CLEAR     57  53  86 SE3       30.17F
SOMERSET       CLEAR     54  54 100 CALM      30.18S
MIDDLESBORO    PTCLDY    55  54  97 CALM      30.21S
MONTICELLO     CLEAR     55  54  96 W10       30.19F
$$





USA.gov is the U.S. government's official web portal to all federal, state and local government web resources and services.